Wind_Speed
34 33 33 32 32 31 29 28 25 23 23 22 21 23 24 20 21 21 17 13 14 13 12 10 7 7 8 8 9 9 10 12 12 16 13 13 11 11 12 13 7 9 8 5 7
34 35 34 33 31 30 31 31 28 27 25 24 24 25 26 23 22 22 15 12 10 11 12 12 10 6 10 5 11 10 13 13 9 15 8 8 8 10 12 15 12 11 10 9 4
36 35 35 34 32 31 32 29 28 27 27 27 27 26 27 25 22 19 12 9 11 10 9 9 11 10 11 12 16 23 21 21 19 14 5 9 8 12 11 13 14 12 13 10 4
35 35 35 34 33 33 31 30 31 29 26 24 24 23 25 23 20 16 11 8 7 9 9 9 11 13 13 16 17 22 21 21 16 9 1 10 12 13 10 8 11 11 13 14 11
36 36 36 35 34 35 33 31 30 28 28 22 19 18 18 18 16 13 10 8 8 9 9 10 11 14 15 14 17 15 14 15 10 8 5 8 10 14 18 12 10 12 12 16 14
35 36 35 36 36 35 33 32 31 30 30 27 20 16 15 14 15 14 12 10 10 12 11 12 13 14 16 17 16 14 11 13 11 11 13 6 7 12 16 21 22 18 18 21 17
35 36 34 34 34 35 35 33 33 32 31 28 23 19 17 14 16 17 14 13 13 14 15 16 18 18 18 18 19 12 11 9 12 11 8 7 5 11 15 20 23 18 20 23 24
35 35 36 34 33 34 34 34 33 33 32 29 28 24 22 19 19 20 20 18 19 18 19 20 21 22 22 21 18 17 13 10 13 15 15 13 8 6 11 14 16 19 26 24 23
33 34 35 36 34 35 35 34 35 35 34 32 30 29 30 25 21 22 22 24 24 24 25 23 24 24 22 22 20 18 15 16 16 18 16 13 9 4 9 9 12 8 18 23 19
38 36 35 35 34 36 35 35 35 34 33 33 32 33 36 33 29 27 25 27 29 30 29 28 26 26 23 19 19 18 17 16 16 18 17 17 13 11 11 14 6 6 15 19 16
43 42 40 38 38 37 35 37 36 36 35 33 32 32 34 34 35 32 30 29 30 32 35 30 29 27 23 18 16 16 18 13 17 20 17 16 16 16 13 11 10 12 18 13 11
41 41 40 41 41 40 38 37 36 37 35 35 33 33 34 33 32 31 29 28 28 27 32 36 32 30 25 20 18 20 18 16 15 20 18 19 16 13 15 12 13 10 16 14 12
37 38 40 40 41 40 38 36 35 35 34 34 31 34 32 31 31 32 32 31 31 31 34 37 30 28 29 25 23 23 22 20 18 19 22 22 21 21 19 21 18 16 15 15 15
38 39 40 39 40 39 39 38 36 35 34 33 32 33 33 34 34 35 34 33 32 32 31 36 33 31 34 30 29 26 24 24 27 24 24 24 20 22 22 26 20 18 20 21 17
37 38 38 39 38 40 39 39 38 38 35 32 31 35 35 37 38 35 35 34 33 33 32 36 39 31 35 32 28 25 27 29 29 28 30 26 24 24 26 28 22 24 25 18 19
35 36 38 39 36 39 38 38 37 36 34 34 36 38 38 37 37 36 36 37 35 35 35 34 34 32 37 32 30 27 29 28 30 30 28 28 24 24 24 23 23 25 24 16 19
29 33 38 38 38 37 35 36 36 36 35 36 35 36 36 33 32 34 34 35 35 34 31 29 31 32 32 31 29 28 29 29 32 34 27 29 27 27 26 23 25 27 23 19 22
28 24 27 30 33 36 36 35 35 34 35 35 32 33 33 32 31 33 33 33 33 31 30 28 28 31 31 32 32 29 28 28 34 35 25 25 30 28 27 26 28 27 24 22 24
32 30 30 28 29 29 32 35 33 35 35 34 31 32 32 32 33 33 33 32 31 31 30 28 28 26 29 28 28 28 28 33 34 33 24 27 33 31 30 29 29 26 24 23 26
35 36 33 34 32 31 28 29 31 35 34 32 32 32 34 34 33 32 32 31 29 30 31 30 26 26 25 25 27 29 34 33 33 30 28 29 33 35 33 32 28 27 26 26 23
40 38 39 37 36 35 33 29 27 33 36 33 33 34 34 35 35 34 33 30 31 31 32 31 28 26 25 27 28 31 33 33 34 31 30 28 31 40 36 27 30 27 26 24 21
51 48 45 44 41 39 38 35 30 34 38 36 35 35 34 35 35 33 31 32 33 33 33 32 32 27 27 27 25 27 31 31 30 34 32 26 33 43 34 29 32 30 24 20 22
59 56 54 52 48 46 44 41 37 35 39 36 36 35 35 35 36 35 33 34 33 32 32 31 32 30 30 28 28 27 30 29 30 30 27 26 38 36 27 26 28 31 26 16 23
71 67 63 60 56 53 51 49 44 40 39 40 38 37 36 35 34 34 33 33 33 32 32 34 33 31 29 26 26 25 25 26 27 27 30 30 40 35 24 24 27 29 27 19 26
82 79 75 70 66 62 59 55 53 47 44 43 40 37 36 36 35 37 37 33 32 33 34 34 32 29 27 26 25 26 24 23 24 24 27 35 34 33 24 22 25 28 28 29 30
93 92 88 83 77 72 68 63 61 55 51 48 43 40 40 39 39 41 37 34 35 35 33 33 29 26 25 27 26 27 27 26 24 22 25 31 34 33 23 23 24 27 30 30 24
93 99 99 93 89 84 78 73 68 64 60 54 50 45 45 44 43 43 41 38 36 37 34 31 26 24 24 23 27 29 28 24 21 23 22 27 32 32 23 23 25 31 32 23 16
Wind_Direction
261 261 262 266 268 271 267 265 268 275 278 285 293 298 302 313 319 327 326 338 340 347 341 335 325 324 307 324 307 283 301 303 321 322 339 350 354 1 18 21 25 352 327 312 264
261 261 262 264 266 270 272 273 269 270 274 278 285 292 299 307 310 320 314 322 332 340 329 319 328 316 316 303 318 297 293 312 318 337 4 9 19 22 33 30 17 11 338 296 305
266 265 266 266 266 268 269 269 272 270 270 275 279 285 292 299 305 309 293 309 322 333 330 315 306 300 321 312 292 297 302 306 312 330 36 59 54 40 32 25 12 356 359 340 304
266 267 267 268 267 266 268 266 268 273 273 273 276 281 285 290 293 288 274 296 312 319 322 319 311 314 319 304 295 300 301 306 307 311 92 69 51 63 55 13 26 32 14 16 7
269 265 264 264 266 267 265 265 267 264 269 274 275 277 282 287 281 271 262 280 293 302 312 309 303 305 310 304 292 291 302 307 277 302 250 36 32 61 53 40 44 38 28 33 30
267 268 265 263 262 262 265 263 263 265 266 266 270 269 274 275 274 256 251 258 282 288 301 309 314 306 308 313 314 304 291 297 249 286 274 305 39 35 43 36 30 42 41 38 40
264 264 265 265 264 264 264 263 261 263 264 264 260 262 262 258 269 266 263 259 274 285 294 303 306 314 315 317 320 310 272 283 260 278 277 273 335 42 30 37 27 38 30 28 39
267 266 265 265 264 264 263 263 262 261 263 264 255 257 257 251 259 268 269 267 267 276 284 289 297 303 313 317 319 307 285 239 256 267 278 286 283 4 23 40 43 30 35 15 31
270 269 267 269 266 266 266 265 263 264 264 265 256 253 257 248 248 263 271 271 270 271 276 282 286 293 305 314 314 304 280 265 256 264 279 289 293 349 10 7 66 58 29 25 7
268 266 268 268 267 266 266 265 264 265 262 261 258 259 259 255 250 253 259 271 275 276 275 277 282 289 298 306 306 296 282 271 263 272 279 290 286 307 306 309 33 62 17 20 8
264 264 262 262 265 267 267 265 262 262 261 261 259 258 261 261 258 258 260 261 264 268 274 275 278 285 286 294 293 285 278 286 266 276 285 295 289 291 299 302 338 17 12 35 32
263 262 259 259 262 267 267 264 260 260 260 261 260 260 260 260 261 260 259 257 254 258 267 270 272 279 276 277 276 273 278 273 278 275 277 283 280 273 293 326 329 351 14 15 23
263 262 261 261 262 264 262 261 259 260 258 258 261 260 262 262 259 259 254 253 256 261 267 272 275 271 271 269 268 265 267 269 269 266 265 270 277 283 302 322 328 336 342 348 3
262 260 259 263 261 262 262 261 259 260 258 257 255 258 260 261 261 259 262 261 259 258 259 267 266 262 264 262 259 261 256 262 256 259 264 268 273 284 294 306 317 324 326 331 344
265 264 262 262 260 259 262 260 259 261 258 256 253 255 255 255 260 259 260 260 261 262 259 256 263 256 260 258 259 258 250 250 252 252 257 264 274 278 288 300 311 314 318 322 334
262 263 263 262 260 261 257 256 257 255 253 253 252 252 251 251 257 262 265 266 263 259 258 257 259 258 253 254 251 243 244 246 250 246 249 259 267 271 281 288 302 307 312 323 331
269 268 267 264 261 258 255 254 254 253 252 252 251 251 251 253 256 259 258 258 259 259 257 256 254 255 253 251 247 241 241 242 249 251 249 256 261 269 278 281 290 299 308 318 328
264 262 269 270 265 259 254 252 251 251 250 250 250 249 250 250 249 251 253 255 257 259 258 256 254 253 252 250 246 242 238 240 249 255 254 252 254 259 269 274 282 291 300 310 317
270 267 264 266 270 268 256 250 248 249 248 248 249 248 245 245 245 247 250 252 255 258 257 255 252 250 251 251 251 244 236 233 237 249 249 249 254 257 262 270 275 284 291 298 305
266 267 264 264 262 267 264 253 247 247 246 243 245 244 242 242 242 244 247 249 249 249 252 251 250 250 252 251 246 241 235 231 235 240 240 237 257 260 258 265 276 280 285 289 294
261 262 263 260 260 258 261 256 247 248 244 240 239 240 238 241 241 240 241 241 242 244 249 253 253 250 248 245 243 241 242 233 229 231 237 232 238 254 263 261 266 272 279 285 289
262 258 258 257 256 255 254 253 245 243 244 239 235 236 237 240 241 240 238 238 241 242 246 249 251 252 251 249 245 242 241 242 235 229 230 231 238 245 253 251 257 265 269 280 280
260 257 255 255 253 251 251 248 244 241 244 240 236 234 234 236 238 237 237 241 243 244 244 247 249 247 249 249 247 246 246 242 242 240 233 232 242 248 244 244 251 263 265 261 265
261 257 254 251 251 249 247 245 241 238 240 241 237 233 231 232 237 243 236 239 244 247 248 248 250 249 250 249 251 251 252 250 244 237 232 232 240 253 249 247 246 256 266 253 257
256 254 251 249 247 246 241 242 239 234 235 237 233 231 230 229 234 240 247 247 245 247 250 249 251 255 255 253 251 249 245 247 247 244 238 239 243 249 241 242 242 245 249 254 263
252 250 248 244 243 243 240 236 237 233 231 231 232 224 226 227 232 240 243 249 253 251 251 253 254 255 254 253 248 248 247 242 240 242 239 241 242 248 233 232 233 238 242 258 266
250 248 245 241 238 238 237 234 233 231 229 227 228 225 223 226 232 239 242 244 248 252 252 253 251 254 257 260 253 246 242 242 242 238 233 239 244 249 237 235 228 232 240 259 259
Height
10993 10995 10997 10999 11000 11002 11004 11005 11008 11009 11010 11009 11010 11008 11008 11009 11007 11006 11004 11003 10999 10998 10997 10997 10997 10997 10998 10997 10997 10997 10997 10996 10994 10992 10990 10987 10988 10987 10985 10984 10984 10983 10981 10979 10976
10987 10989 10991 10994 10996 10997 10998 10999 11002 11004 11005 11005 11006 11004 11004 11005 11004 11003 11003 11001 11000 10998 10995 10995 10994 10995 10996 10996 10995 10994 10994 10994 10992 10992 10988 10986 10986 10986 10985 10984 10984 10983 10981 10979 10976
10982 10984 10985 10988 10990 10992 10993 10993 10995 10999 11001 11001 11001 11001 11000 11001 11001 11000 11000 10999 10998 10998 10996 10994 10992 10993 10993 10994 10994 10993 10993 10992 10991 10990 10989 10987 10986 10986 10985 10985 10985 10983 10981 10978 10976
10977 10978 10979 10981 10984 10986 10987 10988 10990 10992 10994 10996 10997 10997 10995 10996 10996 10996 10997 10997 10997 10995 10995 10994 10991 10990 10993 10993 10992 10992 10990 10990 10990 10989 10990 10988 10988 10986 10986 10985 10983 10981 10980 10977 10974
10969 10971 10972 10974 10976 10978 10980 10982 10983 10985 10987 10990 10992 10992 10992 10992 10992 10992 10994 10994 10994 10993 10993 10992 10992 10990 10991 10992 10991 10991 10989 10989 10991 10991 10990 10990 10989 10987 10987 10985 10983 10982 10980 10977 10975
10962 10963 10964 10967 10969 10970 10972 10975 10976 10978 10981 10984 10986 10987 10989 10990 10988 10989 10991 10992 10992 10991 10991 10990 10990 10989 10988 10989 10989 10987 10988 10987 10989 10990 10991 10990 10990 10989 10987 10987 10986 10985 10982 10978 10974
10955 10956 10958 10960 10962 10963 10965 10966 10968 10971 10974 10977 10980 10982 10985 10987 10985 10985 10988 10990 10990 10989 10988 10987 10986 10986 10986 10985 10984 10985 10986 10986 10986 10987 10988 10989 10989 10989 10989 10987 10987 10987 10985 10981 10976
10948 10949 10951 10952 10954 10955 10957 10959 10960 10963 10966 10970 10973 10975 10978 10982 10982 10982 10983 10986 10985 10985 10984 10984 10983 10983 10983 10983 10983 10981 10982 10985 10985 10985 10985 10987 10988 10987 10988 10987 10988 10988 10985 10982 10979
10941 10942 10943 10944 10946 10947 10949 10952 10953 10956 10959 10962 10965 10968 10969 10974 10978 10978 10979 10979 10980 10980 10980 10981 10980 10980 10981 10979 10979 10978 10978 10980 10981 10981 10983 10985 10985 10984 10986 10988 10988 10987 10985 10983 10980
10934 10935 10935 10936 10938 10939 10941 10944 10945 10947 10951 10954 10957 10959 10960 10966 10970 10973 10975 10974 10973 10971 10974 10975 10976 10976 10978 10976 10975 10974 10974 10976 10977 10977 10979 10981 10981 10982 10984 10986 10985 10985 10983 10983 10981
10923 10925 10927 10927 10930 10931 10933 10935 10937 10939 10942 10946 10949 10951 10952 10955 10960 10965 10968 10970 10969 10965 10963 10969 10970 10972 10973 10973 10972 10971 10971 10973 10973 10974 10976 10977 10978 10980 10982 10983 10983 10982 10979 10979 10979
10912 10915 10916 10918 10920 10922 10924 10925 10928 10930 10933 10936 10940 10942 10944 10947 10950 10955 10959 10960 10962 10962 10959 10959 10966 10966 10968 10970 10969 10967 10967 10970 10971 10970 10972 10973 10975 10977 10979 10980 10979 10979 10978 10978 10977
10902 10904 10905 10908 10910 10912 10913 10916 10919 10921 10925 10929 10933 10933 10936 10939 10942 10944 10948 10951 10954 10957 10952 10951 10959 10960 10960 10964 10965 10964 10964 10966 10968 10966 10967 10969 10971 10972 10973 10974 10974 10974 10973 10975 10975
10893 10893 10895 10898 10900 10902 10904 10907 10910 10912 10916 10919 10924 10925 10927 10928 10931 10933 10937 10941 10944 10947 10949 10944 10948 10952 10950 10956 10958 10961 10963 10962 10961 10961 10963 10964 10968 10967 10969 10969 10970 10969 10970 10971 10972
10883 10884 10885 10886 10889 10891 10894 10896 10899 10902 10906 10911 10915 10915 10918 10919 10919 10924 10928 10931 10933 10935 10939 10938 10935 10944 10942 10946 10951 10955 10956 10956 10956 10958 10957 10959 10961 10962 10962 10965 10965 10965 10965 10966 10968
10873 10873 10874 10875 10880 10880 10883 10885 10888 10892 10896 10899 10902 10904 10907 10911 10912 10914 10917 10919 10923 10926 10927 10929 10930 10933 10933 10939 10943 10947 10947 10949 10949 10952 10953 10954 10957 10958 10960 10960 10960 10961 10962 10963 10964
10864 10865 10864 10866 10868 10869 10873 10875 10878 10881 10885 10887 10892 10894 10898 10902 10905 10905 10907 10908 10909 10913 10918 10922 10923 10923 10926 10931 10935 10938 10939 10941 10940 10941 10949 10950 10952 10953 10955 10955 10955 10956 10957 10958 10957
10855 10857 10857 10857 10857 10860 10863 10866 10868 10870 10874 10877 10882 10885 10889 10892 10895 10896 10897 10898 10901 10904 10907 10912 10915 10914 10918 10921 10926 10931 10934 10936 10934 10935 10945 10946 10945 10947 10948 10950 10951 10952 10953 10952 10953
10846 10848 10848 10849 10849 10850 10853 10855 10859 10860 10863 10868 10873 10876 10879 10882 10885 10887 10888 10891 10894 10895 10899 10902 10904 10907 10908 10913 10917 10923 10928 10927 10929 10931 10939 10939 10937 10940 10941 10944 10946 10949 10948 10948 10948
10838 10837 10839 10839 10840 10842 10844 10846 10849 10850 10853 10859 10863 10867 10869 10872 10876 10879 10881 10884 10888 10888 10888 10892 10898 10900 10903 10905 10908 10910 10914 10921 10924 10927 10931 10934 10931 10930 10935 10938 10942 10943 10942 10943 10945
10826 10826 10827 10829 10831 10833 10835 10838 10840 10840 10842 10848 10852 10856 10860 10862 10866 10870 10873 10877 10878 10881 10882 10884 10889 10893 10896 10897 10900 10902 10904 10911 10916 10921 10923 10929 10929 10921 10925 10935 10935 10937 10938 10940 10941
10810 10814 10815 10815 10819 10822 10824 10828 10831 10831 10832 10837 10842 10846 10850 10853 10858 10862 10866 10868 10870 10873 10875 10879 10880 10885 10888 10891 10894 10896 10898 10901 10908 10912 10916 10922 10921 10914 10925 10931 10929 10929 10933 10936 10933
10793 10795 10799 10801 10806 10809 10812 10816 10820 10823 10824 10828 10832 10837 10841 10844 10848 10853 10858 10859 10861 10865 10868 10870 10873 10877 10879 10883 10885 10889 10891 10896 10900 10905 10913 10914 10907 10908 10920 10924 10923 10920 10923 10929 10927
10768 10774 10778 10783 10789 10794 10797 10801 10808 10813 10814 10816 10822 10827 10832 10836 10839 10841 10847 10850 10853 10856 10859 10860 10864 10869 10872 10876 10879 10883 10885 10889 10893 10898 10902 10905 10899 10902 10913 10916 10916 10914 10915 10923 10920
10738 10744 10752 10759 10767 10773 10779 10786 10791 10798 10803 10804 10810 10818 10824 10828 10830 10832 10834 10840 10845 10847 10850 10853 10857 10862 10866 10869 10872 10874 10878 10881 10885 10890 10895 10894 10897 10897 10905 10909 10910 10909 10910 10914 10915
10700 10709 10718 10730 10741 10748 10758 10766 10773 10782 10788 10793 10799 10807 10813 10817 10821 10822 10827 10831 10833 10837 10842 10847 10851 10855 10859 10862 10865 10867 10869 10873 10877 10881 10885 10887 10887 10889 10898 10902 10903 10902 10904 10906 10910
10659 10668 10680 10693 10708 10719 10732 10742 10752 10761 10769 10780 10787 10794 10800 10806 10810 10813 10816 10822 10826 10828 10834 10840 10845 10848 10851 10853 10855 10858 10862 10868 10871 10873 10877 10879 10879 10881 10891 10895 10896 10894 10897 10902 10906